Whiting Fld NAS, FL

3:01 AM CST on November 21, 2019 (GMT -0600)
Whiting Field Naval Air Station (North)

Weather History for KNSE - September, 2019

Change the Weather History Date:

Thursday, September 26, 2019

  Actual Average Record
Temperature  
Mean Temperature 86 °F -  
Max Temperature 98 °F 81 °F 98 °F (2019)
Min Temperature 73 °F 64 °F 51 °F (2000)
Cooling Degree Days 20    
Growing Degree Days 36 (Base 50)    
Moisture  
Dew Point 70 °F    
Average Humidity 67    
Maximum Humidity 93    
Minimum Humidity 36    
Precipitation  
Precipitation 0.00 in - - ()
Sea Level Pressure  
Sea Level Pressure 29.87 in    
Wind  
Wind Speed 6 mph (West)    
Max Wind Speed 12 mph    
Max Gust Speed 17 mph    
Visibility 10 miles    
Events      
Averages and records for this station are not official NWS values.
T = Trace of Precipitation, MM = Missing Value Source: NWS Daily Summary

Daily Weather History Graph

Daily Weather History Graph

Search for Another Location

Airport or City:

Astronomy

Sep. 26, 2019 Rise Set
Actual Time 6:38 AM CDT 6:39 PM CDT
Civil Twilight 6:14 AM CDT 7:03 PM CDT
Nautical Twilight 5:46 AM CDT 7:31 PM CDT
Astronomical Twilight 5:18 AM CDT 7:59 PM CDT
Moon 4:01 AM CDT (9/26) 5:38 PM CDT (9/26)
Length of Visible Light 12h 49m
Length of Day
12h 01m
Waning Crescent, 6% of the Moon is Illuminated
Sep 26
Waning Crescent
Sep 28
New
Oct 5
First Quarter
Oct 13
Full
Oct 21
Last Quarter

Hourly Weather History & Observations

Time (CDT) Temp. Heat Index Dew Point Humidity Pressure Visibility Wind Dir Wind Speed Gust Speed Precip Events Conditions
12:56 AM 75.9 °F - 73.0 °F 91% 29.86 in 10.0 mi West 4.6 mph - N/A   Clear
1:56 AM 75.9 °F - 73.0 °F 91% 29.85 in 10.0 mi West 3.5 mph - N/A   Clear
2:56 AM 73.9 °F - 72.0 °F 93% 29.84 in 10.0 mi West 3.5 mph - N/A   Partly Cloudy
3:56 AM 73.0 °F - 71.1 °F 93% 29.84 in 10.0 mi WNW 3.5 mph - N/A   Clear
4:56 AM 73.0 °F - 70.0 °F 90% 29.86 in 10.0 mi WNW 4.6 mph - N/A   Scattered Clouds
5:56 AM 75.0 °F - 70.0 °F 84% 29.89 in 10.0 mi WNW 6.9 mph - N/A   Scattered Clouds
6:56 AM 75.0 °F - 69.1 °F 82% 29.91 in 10.0 mi WNW 5.8 mph - N/A   Mostly Cloudy
7:56 AM 79.0 °F - 69.1 °F 72% 29.91 in 10.0 mi WNW 9.2 mph - N/A   Mostly Cloudy
8:56 AM 82.9 °F 85.8 °F 68.0 °F 60% 29.92 in 10.0 mi NW 9.2 mph - N/A   Scattered Clouds
9:56 AM 87.1 °F 90.6 °F 68.0 °F 53% 29.92 in 10.0 mi NW 9.2 mph - N/A   Partly Cloudy
10:56 AM 89.1 °F 93.7 °F 69.1 °F 52% 29.91 in 10.0 mi Calm Calm - N/A   Partly Cloudy
11:56 AM 91.9 °F 96.9 °F 69.1 °F 47% 29.89 in 10.0 mi Calm Calm - N/A   Partly Cloudy
12:56 PM 96.1 °F 101.0 °F 68.0 °F 40% 29.87 in 10.0 mi WSW 6.9 mph - N/A   Scattered Clouds
1:56 PM 93.0 °F 95.0 °F 64.9 °F 39% 29.85 in 10.0 mi Variable 3.5 mph - N/A   Scattered Clouds
2:56 PM 98.1 °F 102.4 °F 66.9 °F 36% 29.83 in 10.0 mi WSW 11.5 mph 17.3 mph N/A   Scattered Clouds
3:56 PM 96.1 °F 99.3 °F 66.0 °F 37% 29.82 in 10.0 mi WSW 10.4 mph - N/A   Scattered Clouds
4:56 PM 93.0 °F 97.9 °F 69.1 °F 45% 29.81 in 10.0 mi SSW 11.5 mph - N/A   Scattered Clouds
5:56 PM 90.0 °F 96.9 °F 72.0 °F 55% 29.81 in 10.0 mi SSW 5.8 mph - N/A   Scattered Clouds
6:56 PM 86.0 °F 93.8 °F 73.9 °F 67% 29.83 in 10.0 mi South 6.9 mph - N/A   Scattered Clouds
7:56 PM 84.9 °F 90.1 °F 71.1 °F 63% 29.84 in 10.0 mi SW 4.6 mph - N/A   Mostly Cloudy
8:56 PM 82.9 °F 88.8 °F 73.0 °F 72% 29.86 in 10.0 mi WSW 5.8 mph - N/A   Scattered Clouds
9:56 PM 81.0 °F 85.8 °F 73.0 °F 77% 29.87 in 10.0 mi WSW 6.9 mph - N/A   Scattered Clouds
10:45 PM 80.1 °F 84.2 °F 73.0 °F 79% 29.92 in 10.0 mi West 5.8 mph - N/A   Scattered Clouds
10:56 PM 80.1 °F 84.2 °F 73.0 °F 79% 29.88 in 10.0 mi West 6.9 mph - N/A   Overcast